FW7504 Weather Reports


Display with metric or nautical units.
time (UTC)temp
F
wind
direction
speed
MPH
gust
MPH
rain 1hr
in
rain 24hr
in
rain mn
in
humidity
%
barometer
mb
20260510213549 83 0 0.0 5.0 0.00 0.00 0.00 38 1016.7
20260510213053 83 344 0.0 7.0 0.00 0.00 0.00 37 1016.7
20260510212548 83 28 2.0 7.0 0.00 0.00 0.00 37 1016.7
20260510212051 83 352 1.0 4.0 0.00 0.00 0.00 37 1016.8
20260510211600 83 59 2.0 4.0 0.00 0.00 0.00 37 1016.8
20260510211047 82 0 0.0 5.0 0.00 0.00 0.00 38 1016.8
20260510210551 82 0 1.0 5.0 0.00 0.00 0.00 38 1016.7
20260510210054 82 101 1.0 5.0 0.00 0.00 0.00 40 1016.8
20260510205549 81 96 0.0 5.0 0.00 0.00 0.00 38 1016.8
20260510205049 81 103 0.0 2.0 0.00 0.00 0.00 38 1016.7
20260510204558 81 217 0.0 2.0 0.00 0.00 0.00 42 1016.8
20260510204049 81 0 0.0 3.0 0.00 0.00 0.00 38 1016.8
20260510203548 81 360 0.0 8.0 0.00 0.00 0.00 36 1016.9
20260510203053 81 119 3.0 8.0 0.00 0.00 0.00 35 1017.1
20260510202552 81 0 0.0 8.0 0.00 0.00 0.00 39 1017.0
20260510202049 81 130 1.0 8.0 0.00 0.00 0.00 37 1017.1
20260510201552 81 96 1.0 8.0 0.00 0.00 0.00 37 1017.2
20260510201048 81 0 3.0 8.0 0.00 0.00 0.00 37 1017.3
20260510200554 81 132 1.0 10.0 0.00 0.00 0.00 37 1017.4
20260510200108 81 17 1.0 10.0 0.00 0.00 0.00 37 1017.3
20260510195552 81 40 3.0 10.0 0.00 0.00 0.00 38 1017.6
20260510195052 81 0 1.0 5.0 0.00 0.00 0.00 37 1017.4
20260510194605 81 74 0.0 6.0 0.00 0.00 0.00 37 1017.6
20260510194057 81 0 1.0 6.0 0.00 0.00 0.00 37 1017.7
20260510193553 81 106 1.0 11.0 0.00 0.00 0.00 38 1017.6
20260510193103 81 81 3.0 11.0 0.00 0.00 0.00 38 1017.5
20260510192548 81 360 4.0 9.0 0.00 0.00 0.00 38 1017.7
20260510192048 81 65 3.0 9.0 0.00 0.00 0.00 38 1017.7
20260510191552 81 78 1.0 7.0 0.00 0.00 0.00 38 1017.7
20260510191053 82 0 1.0 7.0 0.00 0.00 0.00 39 1017.8
20260510190551 82 299 2.0 5.0 0.00 0.00 0.00 40 1017.8
20260510190055 82 88 1.0 4.0 0.00 0.00 0.00 40 1017.8
20260510185548 82 0 0.0 8.0 0.00 0.00 0.00 40 1017.8
20260510185049 82 101 1.0 9.0 0.00 0.00 0.00 40 1018.0
20260510184601 82 12 2.0 9.0 0.00 0.00 0.00 42 1017.9
20260510184051 81 100 2.0 8.0 0.00 0.00 0.00 41 1018.0
20260510183551 81 0 0.0 2.0 0.00 0.00 0.00 42 1017.9
20260510183053 82 239 0.0 3.0 0.00 0.00 0.00 42 1018.0
20260510182548 82 0 0.0 4.0 0.00 0.00 0.00 43 1017.9
20260510182048 82 349 1.0 6.0 0.00 0.00 0.00 43 1017.9
20260510181552 82 360 1.0 6.0 0.00 0.00 0.00 41 1018.0
20260510181052 82 12 2.0 6.0 0.00 0.00 0.00 41 1017.9
20260510180549 82 0 0.0 5.0 0.00 0.00 0.00 42 1018.0
20260510180056 81 0 0.0 2.0 0.00 0.00 0.00 46 1018.1
20260510175548 81 0 0.0 3.0 0.00 0.00 0.00 45 1018.2
20260510175049 81 0 0.0 3.0 0.00 0.00 0.00 48 1018.3
20260510174558 81 0 0.0 3.0 0.00 0.00 0.00 48 1018.3
20260510174054 81 306 0.0 3.0 0.00 0.00 0.00 49 1018.4
20260510173552 81 193 0.0 4.0 0.00 0.00 0.00 51 1018.4
20260510173055 81 0 0.0 4.0 0.00 0.00 0.00 47 1018.4
20260510172551 81 279 1.0 4.0 0.00 0.00 0.00 47 1018.4
20260510172051 80 17 0.0 3.0 0.00 0.00 0.00 49 1018.5
20260510171552 80 352 0.0 2.0 0.00 0.00 0.00 47 1018.5
20260510171053 80 0 0.0 2.0 0.00 0.00 0.00 48 1018.7
20260510170549 80 0 0.0 2.0 0.00 0.00 0.00 48 1018.6
20260510170056 80 0 0.0 3.0 0.00 0.00 0.00 48 1018.7
20260510165556 80 259 0.0 5.0 0.00 0.00 0.00 48 1018.6
20260510165051 80 5 1.0 8.0 0.00 0.00 0.00 48 1018.6
20260510164608 80 128 2.0 8.0 0.00 0.00 0.00 50 1018.6
20260510164051 79 89 1.0 3.0 0.00 0.00 0.00 51 1018.6
20260510163554 79 0 0.0 3.0 0.00 0.00 0.00 53 1018.7
20260510163055 79 0 0.0 3.0 0.00 0.00 0.00 60 1018.7
20260510162548 79 5 0.0 3.0 0.00 0.00 0.00 60 1018.7
20260510162053 78 0 0.0 2.0 0.00 0.00 0.00 62 1018.8
20260510161557 78 157 0.0 2.0 0.00 0.00 0.00 63 1018.7
20260510161053 78 0 0.0 1.0 0.00 0.00 0.00 65 1018.6
20260510160557 78 0 0.0 2.0 0.00 0.00 0.00 62 1018.7
20260510160056 78 269 0.0 2.0 0.00 0.00 0.00 64 1018.5
20260510155553 78 269 0.0 3.0 0.00 0.00 0.00 63 1018.5
20260510155054 78 0 1.0 3.0 0.00 0.00 0.00 62 1018.5
20260510154602 78 0 0.0 2.0 0.00 0.00 0.00 61 1018.5
20260510154054 77 0 0.0 1.0 0.00 0.00 0.00 62 1018.6
20260510153554 77 0 0.0 2.0 0.00 0.00 0.00 65 1018.6
20260510153054 77 0 0.0 2.0 0.00 0.00 0.00 65 1018.6
20260510152553 77 5 0.0 2.0 0.00 0.00 0.00 67 1018.7
20260510152054 76 0 0.0 2.0 0.00 0.00 0.00 67 1018.7
20260510151556 76 0 0.0 2.0 0.00 0.00 0.00 68 1018.6
20260510151053 75 0 0.0 2.0 0.00 0.00 0.00 69 1018.7
20260510150553 74 0 0.0 4.0 0.00 0.00 0.00 71 1018.6
20260510150121 74 257 1.0 4.0 0.00 0.00 0.00 71 1018.6
20260510145558 74 0 0.0 2.0 0.00 0.00 0.00 73 1018.6
20260510145053 74 0 0.0 2.0 0.00 0.00 0.00 73 1018.5
20260510144621 74 265 0.0 3.0 0.00 0.00 0.00 74 1018.4
20260510144056 73 0 0.0 3.0 0.00 0.00 0.00 75 1018.5
20260510143554 72 9 0.0 3.0 0.00 0.00 0.00 77 1018.4
20260510143056 71 315 0.0 2.0 0.00 0.00 0.00 78 1018.4
20260510142553 71 0 0.0 1.0 0.00 0.00 0.00 78 1018.5
20260510142054 71 0 0.0 1.0 0.00 0.00 0.00 78 1018.5
20260510141553 70 0 0.0 1.0 0.00 0.00 0.00 80 1018.4
20260510141054 69 0 0.0 1.0 0.00 0.00 0.00 81 1018.5
20260510140553 69 0 0.0 2.0 0.00 0.00 0.00 81 1018.5
20260510140056 69 0 0.0 2.0 0.00 0.00 0.00 83 1018.5
20260510135553 68 0 0.0 2.0 0.00 0.00 0.00 83 1018.5
20260510135053 67 352 0.0 2.0 0.00 0.00 0.00 84 1018.5
20260510134606 67 0 0.0 2.0 0.00 0.00 0.00 85 1018.5
20260510134053 66 0 0.0 1.0 0.00 0.00 0.00 85 1018.4
20260510133553 66 0 0.0 2.0 0.00 0.00 0.00 86 1018.4
20260510133053 65 0 0.0 2.0 0.00 0.00 0.00 87 1018.4
20260510132554 65 32 0.0 1.0 0.00 0.00 0.00 88 1018.4
20260510132151 64 41 0.0 1.0 0.00 0.00 0.00 90 1018.3
20260510131552 63 0 0.0 0.0 0.00 0.00 0.00 91 1018.3
20260510131053 63 0 0.0 0.0 0.00 0.00 0.00 91 1018.3
20260510130553 62 0 0.0 0.0 0.00 0.00 0.00 92 1018.4
20260510130056 62 0 0.0 0.0 0.00 0.00 0.00 93 1018.3
20260510125555 61 0 0.0 0.0 0.00 0.00 0.00 93 1018.4
20260510125053 60 0 0.0 0.0 0.00 0.00 0.00 94 1018.2
20260510124601 60 0 0.0 0.0 0.00 0.00 0.00 94 1018.3
20260510124053 59 0 0.0 0.0 0.00 0.00 0.00 94 1018.2
20260510123553 59 0 0.0 0.0 0.00 0.00 0.00 94 1018.2
20260510123056 58 0 0.0 0.0 0.00 0.00 0.00 94 1018.2
20260510122552 58 0 0.0 0.0 0.00 0.00 0.00 94 1018.0
20260510122053 57 0 0.0 0.0 0.00 0.00 0.00 94 1018.0
20260510121553 57 0 0.0 0.0 0.00 0.00 0.00 94 1017.9
20260510121053 56 0 0.0 0.0 0.00 0.00 0.00 93 1018.0
20260510120552 56 0 0.0 0.0 0.00 0.00 0.00 93 1017.9
20260510120051 55 0 0.0 0.0 0.00 0.00 0.00 93 1018.1
20260510115552 55 0 0.0 0.0 0.00 0.00 0.00 93 1018.0
20260510115053 55 0 0.0 0.0 0.00 0.00 0.00 93 1017.9
20260510114608 55 0 0.0 0.0 0.00 0.00 0.00 92 1017.9
20260510114052 54 0 0.0 0.0 0.00 0.00 0.00 92 1017.8
20260510113553 54 0 0.0 0.0 0.00 0.00 0.00 92 1017.9
20260510113057 54 0 0.0 0.0 0.00 0.00 0.00 92 1017.6
20260510112553 54 0 0.0 0.0 0.00 0.00 0.00 92 1017.6
20260510112053 54 0 0.0 0.0 0.00 0.00 0.00 92 1017.5
20260510111553 54 0 0.0 0.0 0.00 0.00 0.00 92 1017.4
20260510111053 54 0 0.0 0.0 0.00 0.00 0.00 92 1017.3
20260510110556 54 0 0.0 0.0 0.00 0.00 0.00 91 1017.1
20260510110052 54 0 0.0 0.0 0.00 0.00 0.00 91 1017.1
20260510105553 54 0 0.0 0.0 0.00 0.00 0.00 91 1016.9
20260510105053 54 0 0.0 0.0 0.00 0.00 0.00 91 1016.8
20260510104557 54 0 0.0 0.0 0.00 0.00 0.00 91 1016.8
20260510104053 54 0 0.0 0.0 0.00 0.00 0.00 91 1016.7
20260510103552 54 0 0.0 0.0 0.00 0.00 0.00 91 1016.5
20260510103052 54 0 0.0 0.0 0.00 0.00 0.00 91 1016.5
20260510102553 55 0 0.0 0.0 0.00 0.00 0.00 91 1016.5
20260510102053 55 0 0.0 0.0 0.00 0.00 0.00 91 1016.5
20260510101553 55 0 0.0 0.0 0.00 0.00 0.00 90 1016.5
20260510101054 55 0 0.0 0.0 0.00 0.00 0.00 90 1016.6
20260510100554 55 0 0.0 0.0 0.00 0.00 0.00 91 1016.6
20260510095553 55 0 0.0 0.0 0.00 0.00 0.00 90 1016.4
20260510095053 55 0 0.0 0.0 0.00 0.00 0.00 91 1016.3
20260510094604 55 0 0.0 0.0 0.00 0.00 0.00 91 1016.3
20260510094053 55 0 0.0 0.0 0.00 0.00 0.00 90 1016.3
20260510093553 55 0 0.0 0.0 0.00 0.00 0.00 90 1016.2
20260510093057 55 0 0.0 0.0 0.00 0.00 0.00 90 1016.2
20260510092553 55 0 0.0 0.0 0.00 0.00 0.00 90 1016.2
20260510092054 55 0 0.0 0.0 0.00 0.00 0.00 90 1016.2
20260510091554 55 0 0.0 0.0 0.00 0.00 0.00 90 1016.2
20260510091052 55 0 0.0 0.0 0.00 0.00 0.00 90 1016.2
20260510090553 55 0 0.0 0.0 0.00 0.00 0.00 90 1016.1
20260510090053 55 0 0.0 0.0 0.00 0.00 0.00 90 1016.1
20260510085555 56 0 0.0 0.0 0.00 0.00 0.00 90 1016.1
20260510085052 56 0 0.0 0.0 0.00 0.00 0.00 90 1015.9
20260510084552 56 0 0.0 0.0 0.00 0.00 0.00 90 1015.9
20260510084053 56 0 0.0 0.0 0.00 0.00 0.00 90 1015.8
20260510083553 56 0 0.0 0.0 0.00 0.00 0.00 90 1015.8
20260510083053 56 0 0.0 0.0 0.00 0.00 0.00 90 1015.7
20260510082554 56 0 0.0 0.0 0.00 0.00 0.00 90 1015.6
20260510082053 56 0 0.0 0.0 0.00 0.00 0.00 90 1015.5
20260510081555 56 0 0.0 0.0 0.00 0.00 0.00 90 1015.4
20260510081053 56 0 0.0 0.0 0.00 0.00 0.00 90 1015.5
20260510080555 56 0 0.0 0.0 0.00 0.00 0.00 90 1015.5
20260510080055 57 0 0.0 0.0 0.00 0.00 0.00 90 1015.2
20260510075553 57 0 0.0 0.0 0.00 0.00 0.00 90 1015.3
20260510075052 57 0 0.0 0.0 0.00 0.00 0.00 90 1015.4
20260510074602 57 0 0.0 0.0 0.00 0.00 0.00 90 1015.2
20260510074053 57 0 0.0 0.0 0.00 0.00 0.00 90 1015.2
20260510073552 57 0 0.0 0.0 0.00 0.00 0.00 90 1015.2
20260510073055 57 0 0.0 0.0 0.00 0.00 0.00 89 1015.2
20260510072553 57 0 0.0 0.0 0.00 0.00 0.00 89 1015.2
20260510072053 57 0 0.0 0.0 0.00 0.00 0.00 89 1015.2
20260510071557 57 0 0.0 0.0 0.00 0.00 0.00 89 1015.2
20260510071054 58 0 0.0 0.0 0.00 0.00 0.00 89 1015.2
20260510070553 58 0 0.0 0.0 0.00 0.00 0.00 89 1015.1
20260510070109 58 0 0.0 0.0 0.00 0.00 0.00 89 1015.1
20260510065553 58 0 0.0 0.0 0.00 0.00 0.00 89 1015.1
20260510065052 58 0 0.0 0.0 0.00 0.00 0.00 89 1015.1
20260510064559 58 0 0.0 0.0 0.00 0.00 0.00 89 1015.1
20260510064052 58 0 0.0 0.0 0.00 0.00 0.00 89 1015.0
20260510063552 58 0 0.0 0.0 0.00 0.00 0.00 89 1015.0
20260510063056 58 0 0.0 0.0 0.00 0.00 0.00 89 1014.9
20260510062553 59 0 0.0 0.0 0.00 0.00 0.00 89 1015.1
20260510062052 59 0 0.0 0.0 0.00 0.00 0.00 88 1015.1
20260510061551 59 0 0.0 0.0 0.00 0.00 0.00 88 1015.1
20260510061053 59 0 0.0 0.0 0.00 0.00 0.00 89 1015.1
20260510060553 59 0 0.0 0.0 0.00 0.00 0.00 88 1015.2
20260510060051 59 0 0.0 0.0 0.00 0.00 0.00 88 1015.2
20260510055552 59 0 0.0 0.0 0.00 0.00 0.00 88 1015.3
20260510055053 59 0 0.0 0.0 0.00 0.00 0.00 88 1015.3
20260510054600 59 0 0.0 0.0 0.00 0.00 0.00 88 1015.2
20260510054053 59 0 0.0 0.0 0.00 0.00 0.00 87 1015.2
20260510053552 60 0 0.0 0.0 0.00 0.00 0.00 88 1015.2
20260510053053 60 0 0.0 0.0 0.00 0.00 0.00 88 1015.2
20260510052553 60 0 0.0 0.0 0.00 0.00 0.00 86 1015.3
20260510052052 60 0 0.0 0.0 0.00 0.00 0.00 87 1015.3
20260510051553 60 0 0.0 0.0 0.00 0.00 0.00 86 1015.2
20260510051054 60 0 0.0 0.0 0.00 0.00 0.00 87 1015.4
20260510050553 60 0 0.0 0.0 0.00 0.00 0.00 87 1015.4
20260510050100 60 0 0.0 0.0 0.00 0.00 0.00 86 1015.4
20260510045556 61 0 0.0 0.0 0.00 0.00 0.00 86 1015.4
20260510045051 61 0 0.0 0.0 0.00 0.00 0.00 86 1015.3
20260510044600 61 0 0.0 0.0 0.00 0.00 0.00 86 1015.4
20260510044053 61 0 0.0 0.0 0.00 0.00 0.00 86 1015.5
20260510043553 61 0 0.0 0.0 0.00 0.00 0.00 86 1015.5
20260510043053 61 0 0.0 0.0 0.00 0.00 0.00 86 1015.5
20260510042552 61 0 0.0 0.0 0.00 0.00 0.00 85 1015.5
20260510042053 62 0 0.0 0.0 0.00 0.00 0.00 85 1015.4
20260510041558 62 0 0.0 0.0 0.00 0.00 0.00 85 1015.5
20260510041052 62 0 0.0 0.0 0.00 0.00 0.00 84 1015.5
20260510040554 62 0 0.0 0.0 0.00 0.00 0.00 84 1015.4
20260510040053 62 0 0.0 0.0 0.00 0.00 0.00 84 1015.3
20260510035552 63 0 0.0 0.0 0.00 0.00 0.00 84 1015.3
20260510035056 63 0 0.0 0.0 0.00 0.00 0.00 83 1015.3
20260510034554 63 0 0.0 0.0 0.00 0.00 0.00 83 1015.2
20260510034052 63 0 0.0 0.0 0.00 0.00 0.00 83 1015.3
20260510033554 63 0 0.0 0.0 0.00 0.00 0.00 82 1015.2
20260510033128 63 0 0.0 0.0 0.00 0.00 0.00 82 1015.3
20260510032558 64 0 0.0 0.0 0.00 0.00 0.00 82 1015.4
20260510032054 64 0 0.0 0.0 0.00 0.00 0.00 82 1015.2
20260510031621 64 0 0.0 0.0 0.00 0.00 0.00 81 1015.2
20260510031055 64 0 0.0 0.0 0.00 0.00 0.00 81 1015.0
20260510030553 65 0 0.0 0.0 0.00 0.00 0.00 81 1015.3
20260510030057 65 0 0.0 0.0 0.00 0.00 0.00 81 1015.2
20260510025553 65 0 0.0 0.0 0.00 0.00 0.00 80 1015.1
20260510025053 65 0 0.0 0.0 0.00 0.00 0.00 80 1015.0
20260510024555 65 0 0.0 0.0 0.00 0.00 0.00 80 1014.8
20260510024052 66 0 0.0 0.0 0.00 0.00 0.00 79 1014.8
20260510023554 66 0 0.0 0.0 0.00 0.00 0.00 80 1014.7
20260510023054 66 0 0.0 0.0 0.00 0.00 0.00 80 1014.6
20260510022554 66 0 0.0 0.0 0.00 0.00 0.00 78 1014.5
20260510022053 66 0 0.0 0.0 0.00 0.00 0.00 78 1014.7
20260510021556 66 0 0.0 0.0 0.00 0.00 0.00 78 1014.6
20260510021052 67 0 0.0 0.0 0.00 0.00 0.00 77 1014.5
20260510020555 67 0 0.0 0.0 0.00 0.00 0.00 77 1014.3
20260510020053 67 0 0.0 0.0 0.00 0.00 0.00 77 1014.4
20260510015556 67 0 0.0 0.0 0.00 0.00 0.00 78 1014.4
20260510015052 67 0 0.0 0.0 0.00 0.00 0.00 77 1014.3
20260510014605 68 0 0.0 0.0 0.00 0.00 0.00 77 1014.2
20260510014052 68 0 0.0 0.0 0.00 0.00 0.00 76 1014.1
20260510013552 68 0 0.0 0.0 0.00 0.00 0.00 76 1014.1
20260510013054 68 0 0.0 0.0 0.00 0.00 0.00 76 1014.0
20260510012553 68 0 0.0 0.0 0.00 0.00 0.00 76 1014.1
20260510012056 68 0 0.0 0.0 0.00 0.00 0.00 75 1013.8
20260510011558 69 0 0.0 0.0 0.00 0.00 0.00 75 1013.8
20260510011051 69 0 0.0 0.0 0.00 0.00 0.00 73 1013.8
20260510010554 69 0 0.0 0.0 0.00 0.00 0.00 73 1013.6
20260510005552 70 0 0.0 1.0 0.00 0.00 0.00 71 1013.4
20260510005056 70 0 0.0 1.0 0.00 0.00 0.00 71 1013.3
20260510004556 70 0 0.0 1.0 0.00 0.00 0.00 71 1013.3
20260510004052 70 0 0.0 0.0 0.00 0.00 0.00 71 1013.2
20260510003550 70 0 0.0 0.0 0.00 0.00 0.00 71 1013.1
20260510003100 70 0 0.0 0.0 0.00 0.00 0.00 72 1013.1
20260510002553 71 0 0.0 0.0 0.00 0.00 0.00 72 1013.0
20260510002051 71 0 0.0 1.0 0.00 0.00 0.00 71 1012.8
20260510001553 71 0 0.0 1.0 0.00 0.00 0.00 71 1012.8
20260510001049 71 0 0.0 2.0 0.00 0.00 0.00 69 1012.7
20260510000553 71 0 0.0 3.0 0.00 0.00 0.00 70 1012.5
20260510000057 71 360 0.0 5.0 0.00 0.00 0.00 70 1012.4
20260509235555 71 0 1.0 5.0 0.00 0.00 0.00 70 1012.5
20260509235052 71 0 2.0 4.0 0.00 0.00 0.00 72 1012.8
20260509234606 71 360 0.0 2.0 0.00 0.00 0.00 76 1012.7
20260509234053 71 360 0.0 2.0 0.00 0.00 0.00 75 1012.5
20260509233554 72 0 0.0 3.0 0.00 0.00 0.00 75 1012.4
20260509233056 72 0 0.0 3.0 0.00 0.00 0.00 75 1012.5
20260509232552 72 360 0.0 4.0 0.00 0.00 0.00 75 1012.3
20260509232052 72 360 2.0 4.0 0.00 0.00 0.00 74 1012.3
20260509231553 72 0 0.0 3.0 0.00 0.00 0.00 75 1012.3
20260509231051 72 0 0.0 1.0 0.00 0.00 0.00 74 1012.2
20260509230552 73 0 0.0 2.0 0.00 0.00 0.00 74 1012.2
20260509230106 73 0 0.0 3.0 0.00 0.00 0.00 73 1012.1
20260509225552 73 360 1.0 3.0 0.00 0.00 0.00 72 1012.3
20260509225052 73 360 1.0 3.0 0.00 0.00 0.00 72 1012.2
20260509224552 74 0 0.0 3.0 0.00 0.00 0.00 70 1012.2
20260509224052 74 360 0.0 4.0 0.00 0.00 0.00 70 1012.2
20260509223553 74 0 0.0 4.0 0.00 0.00 0.00 70 1012.1
20260509223058 74 360 2.0 4.0 0.00 0.00 0.00 68 1012.2
20260509222554 75 360 1.0 3.0 0.00 0.00 0.00 70 1012.0
20260509222052 75 0 1.0 3.0 0.00 0.00 0.00 70 1012.0
20260509221553 75 0 0.0 4.0 0.00 0.00 0.00 66 1012.0
20260509221049 75 360 0.0 4.0 0.00 0.00 0.00 64 1011.9
20260509220552 75 360 1.0 4.0 0.00 0.00 0.00 63 1011.9
20260509215552 75 360 2.0 4.0 0.00 0.00 0.00 63 1011.8
20260509215052 75 360 1.0 3.0 0.00 0.00 0.00 62 1011.8
20260509214606 75 0 1.0 5.0 0.00 0.00 0.00 63 1011.8
20260509214052 75 360 1.0 5.0 0.00 0.00 0.00 60 1011.9